Montreal Mirabel, Quebec

12:19 AM EDT on April 26, 2018 (GMT -0400)
Montreal Mirabel

Weather History for CYMX - January, 2015

Change the Weather History Date:

Saturday, January 24, 2015

  Actual Average Record
Temperature  
Mean Temperature 28 °F -  
Max Temperature 30 °F 16 °F 44 °F (1999)
Min Temperature 26 °F 0 °F -22 °F (2011)
Degree Days  
Heating Degree Days 37    
Moisture  
Dew Point 23 °F    
Average Humidity 82    
Maximum Humidity 93    
Minimum Humidity 75    
Precipitation  
Precipitation 0.00 in - - ()
Sea Level Pressure  
Sea Level Pressure 29.54 in    
Wind  
Wind Speed 8 mph ()    
Max Wind Speed 12 mph    
Max Gust Speed 22 mph    
Visibility 8.4 miles    
Events Snow    
Averages and records for this station are not official NWS values.
T = Trace of Precipitation, MM = Missing Value Source: Averaged Metar Reports

Daily Weather History Graph

Daily Weather History Graph

Search for Another Location

Airport or City:

Astronomy

Jan. 24, 2015 Rise Set
Actual Time 7:26 AM EST 4:50 PM EST
Civil Twilight 6:53 AM EST 5:22 PM EST
Nautical Twilight 6:17 AM EST 5:59 PM EST
Astronomical Twilight 5:42 AM EST 6:34 PM EST
Moon 9:37 AM EST (1/24) 10:23 PM EST (1/24)
Length of Visible Light 10h 29m
Length of Day
9h 24m
Waxing Crescent, 23% of the Moon is Illuminated
Jan 24
Waxing Crescent
Jan 26
First Quarter
Feb 3
Full
Feb 11
Last Quarter
Feb 18
New

Hourly Weather History & Observations

Time (EST) Temp. Windchill Dew Point Humidity Pressure Visibility Wind Dir Wind Speed Gust Speed Precip Events Conditions
12:00 AM 26.6 °F 17.5 °F 21.2 °F 80% 29.78 in 5.0 mi SW 9.2 mph - N/A Snow Light Snow
12:23 AM 26.6 °F 17.5 °F 21.2 °F 80% 29.77 in 15.0 mi SW 9.2 mph 17.3 mph N/A   Overcast
1:00 AM 26.6 °F 16.2 °F 21.2 °F 80% 29.75 in 10.0 mi SW 11.5 mph 21.9 mph N/A Snow Light Snow Showers
1:44 AM 26.6 °F 18.2 °F 21.2 °F 80% 29.73 in 15.0 mi SW 8.1 mph - N/A   Overcast
2:00 AM 26.6 °F 17.5 °F 21.2 °F 80% 29.73 in 25.0 mi SSW 9.2 mph - N/A   Overcast
3:00 AM 26.6 °F 17.5 °F 21.2 °F 80% 29.71 in 25.0 mi SW 9.2 mph 17.3 mph N/A   Overcast
4:00 AM 26.6 °F 17.5 °F 21.2 °F 80% 29.67 in 15.0 mi SW 9.2 mph - N/A Snow Light Snow
5:00 AM 26.6 °F 16.8 °F 21.2 °F 80% 29.65 in 25.0 mi SW 10.4 mph - N/A   Overcast
6:00 AM 26.6 °F 18.2 °F 21.2 °F 80% 29.66 in 15.0 mi SW 8.1 mph - N/A Snow Light Snow
7:00 AM 26.6 °F 19.1 °F 21.2 °F 80% 29.65 in 10.0 mi SW 6.9 mph - N/A Snow Light Snow
7:38 AM 26.6 °F 18.2 °F 21.2 °F 80% 29.63 in 3.0 mi SW 8.1 mph - N/A Snow Light Snow
8:00 AM 26.6 °F 18.2 °F 23.0 °F 86% 29.63 in 6.0 mi SW 8.1 mph - N/A Snow Light Snow
9:00 AM 26.6 °F 20.0 °F 23.0 °F 86% 29.59 in 4.0 mi SW 5.8 mph - N/A Snow Light Snow
10:00 AM 28.4 °F 19.1 °F 23.0 °F 80% 29.57 in 5.0 mi SW 10.4 mph - N/A Snow Light Snow
11:00 AM 28.4 °F 19.7 °F 23.0 °F 80% 29.55 in 5.0 mi SSW 9.2 mph - N/A Snow Light Snow
12:00 PM 30.2 °F 23.4 °F 23.0 °F 75% 29.51 in 5.0 mi SW 6.9 mph - N/A Snow Light Snow
1:00 PM 30.2 °F 23.4 °F 23.0 °F 75% 29.47 in 8.0 mi WSW 6.9 mph - N/A   Overcast
2:00 PM 30.2 °F 25.4 °F 23.0 °F 75% 29.43 in 8.0 mi WSW 4.6 mph - N/A   Overcast
3:00 PM 30.2 °F 23.4 °F 23.0 °F 75% 29.39 in 7.0 mi West 6.9 mph - N/A   Overcast
4:00 PM 30.2 °F 24.3 °F 24.8 °F 80% 29.39 in 7.0 mi WSW 5.8 mph - N/A   Overcast
5:00 PM 28.4 °F 21.2 °F 23.0 °F 80% 29.37 in 8.0 mi WSW 6.9 mph - N/A   Overcast
6:00 PM 28.4 °F 22.2 °F 23.0 °F 80% 29.37 in 8.0 mi West 5.8 mph - N/A   Overcast
6:12 PM 28.4 °F 21.2 °F 24.8 °F 86% 29.37 in 8.0 mi West 6.9 mph - N/A Snow Light Snow
7:00 PM 28.4 °F 22.2 °F 24.8 °F 86% 29.36 in 8.0 mi West 5.8 mph - N/A Snow Light Snow
8:00 PM 26.6 °F 19.1 °F 24.8 °F 93% 29.35 in 6.0 mi West 6.9 mph - N/A Snow Light Snow
9:00 PM 26.6 °F 18.2 °F 24.8 °F 93% 29.32 in 10.0 mi West 8.1 mph - N/A   Overcast
10:00 PM 26.6 °F 17.5 °F 24.8 °F 93% 29.31 in 10.0 mi WSW 9.2 mph 17.3 mph N/A Snow Light Snow
11:00 PM 26.6 °F 16.2 °F 24.8 °F 93% 29.31 in 10.0 mi West 11.5 mph 17.3 mph N/A Snow Light Snow